Time,TemperatureF,DewpointF,PressureIn,WindDirection,WindDirectionDegrees,WindSpeedMPH,WindSpeedGustMPH,Humidity,HourlyPrecipIn,Conditions,Clouds,dailyrainin,SoftwareType,DateUTC
2013-01-31 00:00:00,52.9,50.0,29.47,SSW,210,11.5,11.7,90,0.02,RA,,0.00,WeatherDisplay:10.37,2013-01-31 05:00:00,
2013-01-31 00:01:00,52.2,49.4,29.47,West,265,13.0,13.0,90,0.03,RA,,0.00,WeatherDisplay:10.37,2013-01-31 05:01:00,
2013-01-31 00:02:00,52.1,49.3,29.48,SSW,213,13.8,13.8,90,0.03,RA,,0.00,WeatherDisplay:10.37,2013-01-31 05:02:00,
2013-01-31 00:03:00,52.1,49.3,29.47,WSW,244,16.1,16.1,90,0.03,RA,,0.00,WeatherDisplay:10.37,2013-01-31 05:03:00,
2013-01-31 00:08:00,51.9,49.4,29.47,WSW,240,16.1,16.1,91,0.02,RA,,0.00,WeatherDisplay:10.37,2013-01-31 05:08:00,
2013-01-31 00:13:00,51.7,49.2,29.49,WSW,250,13.0,13.0,91,0.02,CLR,,0.00,WeatherDisplay:10.37,2013-01-31 05:13:00,
2013-01-31 00:18:00,51.7,49.2,29.49,SW,221,6.9,10.2,91,0.02,CLR,,0.00,WeatherDisplay:10.37,2013-01-31 05:18:00,
2013-01-31 00:23:00,51.3,48.5,29.49,West,259,17.3,17.3,90,0.02,CLR,,0.00,WeatherDisplay:10.37,2013-01-31 05:23:00,
2013-01-31 00:28:00,51.3,48.5,29.49,West,259,17.3,17.3,90,0.02,CLR,,0.00,WeatherDisplay:10.37,2013-01-31 05:28:00,
2013-01-31 00:33:00,50.4,46.7,29.51,WSW,244,26.5,26.5,87,0.02,CLR,,0.00,WeatherDisplay:10.37,2013-01-31 05:33:00,
2013-01-31 00:38:00,50.1,46.4,29.50,SW,234,21.9,21.9,87,0.02,CLR,,0.00,WeatherDisplay:10.37,2013-01-31 05:38:00,
2013-01-31 00:49:00,51.3,48.5,29.49,West,259,17.3,17.3,90,0.00,CLR,,0.00,WeatherDisplay:10.37,2013-01-31 05:49:00,
2013-01-31 00:59:00,51.3,48.5,29.49,West,259,17.3,17.3,90,0.00,CLR,,0.00,WeatherDisplay:10.37,2013-01-31 05:59:00,
2013-01-31 01:04:00,49.0,45.0,29.50,WSW,253,21.9,21.9,86,0.00,CLR,,0.00,WeatherDisplay:10.37,2013-01-31 06:04:00,
2013-01-31 01:17:00,48.8,44.8,29.50,WSW,252,17.3,17.3,86,0.00,CLR,,0.00,WeatherDisplay:10.37,2013-01-31 06:17:00,
2013-01-31 01:23:00,48.8,44.8,29.50,WSW,252,17.3,17.3,86,0.00,CLR,,0.00,WeatherDisplay:10.37,2013-01-31 06:23:00,
2013-01-31 01:28:00,48.1,44.1,29.51,WSW,249,18.4,18.4,86,0.00,CLR,,0.00,WeatherDisplay:10.37,2013-01-31 06:28:00,
2013-01-31 01:33:00,48.0,44.0,29.51,WSW,246,17.3,17.3,86,0.00,CLR,,0.00,WeatherDisplay:10.37,2013-01-31 06:33:00,
2013-01-31 01:38:00,48.2,44.2,29.51,WSW,248,19.6,19.6,86,0.00,CLR,,0.00,WeatherDisplay:10.37,2013-01-31 06:38:00,
2013-01-31 01:43:00,47.8,43.8,29.52,WSW,252,11.5,11.5,86,0.00,CLR,,0.00,WeatherDisplay:10.37,2013-01-31 06:43:00,
2013-01-31 01:48:00,47.8,43.8,29.52,SW,230,17.3,17.3,86,0.00,CLR,,0.00,WeatherDisplay:10.37,2013-01-31 06:48:00,
2013-01-31 01:53:00,47.8,44.1,29.53,WSW,248,12.7,12.7,87,0.00,CLR,,0.00,WeatherDisplay:10.37,2013-01-31 06:53:00,
2013-01-31 01:58:00,47.8,44.1,29.53,WSW,245,17.3,17.3,87,0.00,CLR,,0.00,WeatherDisplay:10.37,2013-01-31 06:58:00,
2013-01-31 02:03:00,47.8,44.1,29.53,WSW,254,15.0,15.0,87,0.00,CLR,,0.00,WeatherDisplay:10.37,2013-01-31 07:03:00,
2013-01-31 02:08:00,47.6,44.2,29.55,WNW,283,18.4,18.4,88,0.02,RA,,0.02,WeatherDisplay:10.37,2013-01-31 07:08:00,
2013-01-31 02:13:00,47.6,44.2,29.55,WNW,283,18.4,18.4,88,0.02,RA,,0.02,WeatherDisplay:10.37,2013-01-31 07:13:00,
2013-01-31 03:04:00,45.4,39.9,29.58,West,261,15.0,15.0,81,0.05,CLR,,0.05,WeatherDisplay:10.37,2013-01-31 08:04:00,
2013-01-31 03:09:00,47.6,44.2,29.55,WNW,283,18.4,18.4,88,0.00,CLR,,0.02,WeatherDisplay:10.37,2013-01-31 08:09:00,
2013-01-31 03:25:00,45.1,39.3,29.59,West,275,11.5,11.5,80,0.00,CLR,,0.05,WeatherDisplay:10.37,2013-01-31 08:25:00,
2013-01-31 03:31:00,45.1,39.3,29.59,West,275,11.5,11.5,80,0.00,CLR,,0.05,WeatherDisplay:10.37,2013-01-31 08:31:00,
2013-01-31 03:36:00,45.1,39.3,29.59,West,275,11.5,11.5,80,0.00,CLR,,0.05,WeatherDisplay:10.37,2013-01-31 08:36:00,
2013-01-31 03:41:00,45.1,39.3,29.59,West,275,11.5,11.5,80,0.00,CLR,,0.05,WeatherDisplay:10.37,2013-01-31 08:41:00,
2013-01-31 03:46:00,43.7,37.9,29.61,West,263,4.6,5.5,80,0.03,CLR,,0.05,WeatherDisplay:10.37,2013-01-31 08:46:00,
2013-01-31 03:51:00,43.6,36.9,29.61,NW,305,17.0,17.0,77,0.00,CLR,,0.05,WeatherDisplay:10.37,2013-01-31 08:51:00,
2013-01-31 03:58:00,43.7,37.9,29.61,West,263,4.6,5.5,80,0.03,CLR,,0.05,WeatherDisplay:10.37,2013-01-31 08:58:00,
2013-01-31 04:10:00,44.3,35.1,29.63,WNW,284,18.4,18.4,70,0.00,CLR,,0.05,WeatherDisplay:10.37,2013-01-31 09:10:00,
2013-01-31 04:15:00,44.1,34.9,29.63,WNW,290,20.0,20.0,70,0.00,CLR,,0.05,WeatherDisplay:10.37,2013-01-31 09:15:00,
2013-01-31 04:20:00,44.1,34.9,29.63,West,279,17.3,17.3,70,0.00,CLR,,0.05,WeatherDisplay:10.37,2013-01-31 09:20:00,
2013-01-31 04:26:00,44.0,34.8,29.64,West,276,15.0,15.0,70,0.00,CLR,,0.05,WeatherDisplay:10.37,2013-01-31 09:26:00,
2013-01-31 04:31:00,44.0,34.8,29.64,West,276,15.0,15.0,70,0.00,CLR,,0.05,WeatherDisplay:10.37,2013-01-31 09:31:00,
2013-01-31 04:36:00,43.6,33.4,29.65,WNW,300,19.6,19.6,67,0.00,CLR,,0.05,WeatherDisplay:10.37,2013-01-31 09:36:00,
2013-01-31 04:41:00,44.0,34.8,29.64,West,276,15.0,15.0,70,0.00,CLR,,0.05,WeatherDisplay:10.37,2013-01-31 09:41:00,
2013-01-31 04:46:00,44.0,34.8,29.64,West,276,15.0,15.0,70,0.00,CLR,,0.05,WeatherDisplay:10.37,2013-01-31 09:46:00,
2013-01-31 04:51:00,44.0,34.8,29.64,West,276,15.0,15.0,70,0.00,CLR,,0.05,WeatherDisplay:10.37,2013-01-31 09:51:00,
2013-01-31 04:56:00,44.0,34.8,29.64,West,276,15.0,15.0,70,0.00,CLR,,0.05,WeatherDisplay:10.37,2013-01-31 09:56:00,
2013-01-31 05:01:00,44.0,34.8,29.64,West,276,15.0,15.0,70,0.00,CLR,,0.05,WeatherDisplay:10.37,2013-01-31 10:01:00,
2013-01-31 05:06:00,44.0,34.8,29.64,West,276,15.0,15.0,70,0.00,CLR,,0.05,WeatherDisplay:10.37,2013-01-31 10:06:00,
2013-01-31 05:11:00,42.0,32.2,29.68,West,279,19.6,19.6,68,0.00,CLR,,0.05,WeatherDisplay:10.37,2013-01-31 10:11:00,
2013-01-31 05:16:00,44.0,34.8,29.64,West,276,15.0,15.0,70,0.00,CLR,,0.05,WeatherDisplay:10.37,2013-01-31 10:16:00,
2013-01-31 05:21:00,44.0,34.8,29.64,West,276,15.0,15.0,70,0.00,CLR,,0.05,WeatherDisplay:10.37,2013-01-31 10:21:00,
2013-01-31 05:26:00,44.0,34.8,29.64,West,276,15.0,15.0,70,0.00,CLR,,0.05,WeatherDisplay:10.37,2013-01-31 10:26:00,
2013-01-31 05:31:00,44.0,34.8,29.64,West,276,15.0,15.0,70,0.00,CLR,,0.05,WeatherDisplay:10.37,2013-01-31 10:31:00,
2013-01-31 05:36:00,40.9,29.3,29.71,WNW,295,15.0,15.0,63,0.00,CLR,,0.05,WeatherDisplay:10.37,2013-01-31 10:36:00,
2013-01-31 05:41:00,40.6,29.0,29.72,West,280,19.6,19.6,63,0.00,CLR,,0.05,WeatherDisplay:10.37,2013-01-31 10:41:00,
2013-01-31 05:46:00,40.9,29.3,29.71,WNW,295,10.4,13.7,63,0.00,CLR,,0.05,WeatherDisplay:10.37,2013-01-31 10:46:00,
2013-01-31 05:51:00,40.9,29.3,29.71,WNW,295,10.4,13.7,63,0.00,CLR,,0.05,WeatherDisplay:10.37,2013-01-31 10:51:00,
2013-01-31 05:56:00,39.8,27.8,29.73,WNW,290,18.4,18.4,62,0.00,CLR,,0.05,WeatherDisplay:10.37,2013-01-31 10:56:00,
2013-01-31 06:01:00,39.6,28.0,29.73,West,269,19.6,19.6,63,0.00,CLR,,0.05,WeatherDisplay:10.37,2013-01-31 11:01:00,
2013-01-31 06:06:00,39.4,27.8,29.74,NW,321,16.1,16.1,63,0.00,CLR,,0.05,WeatherDisplay:10.37,2013-01-31 11:06:00,
2013-01-31 06:11:00,39.7,28.1,29.73,NW,306,13.8,13.8,63,0.00,CLR,,0.05,WeatherDisplay:10.37,2013-01-31 11:11:00,
2013-01-31 06:16:00,39.7,28.1,29.73,NW,306,13.8,13.8,63,0.00,CLR,,0.05,WeatherDisplay:10.37,2013-01-31 11:16:00,
2013-01-31 06:21:00,39.0,27.1,29.75,West,281,28.0,28.0,62,0.00,CLR,,0.05,WeatherDisplay:10.37,2013-01-31 11:21:00,
2013-01-31 06:26:00,39.7,28.1,29.73,NW,306,13.8,13.8,63,0.00,CLR,,0.05,WeatherDisplay:10.37,2013-01-31 11:26:00,
2013-01-31 06:31:00,39.0,25.9,29.76,WNW,294,21.9,21.9,59,0.00,CLR,,0.05,WeatherDisplay:10.37,2013-01-31 11:31:00,
2013-01-31 06:36:00,39.7,28.1,29.73,NW,306,13.8,13.8,63,0.00,CLR,,0.05,WeatherDisplay:10.37,2013-01-31 11:36:00,
2013-01-31 06:41:00,38.8,26.5,29.77,WNW,289,12.7,12.7,61,0.00,CLR,,0.05,WeatherDisplay:10.37,2013-01-31 11:41:00,
2013-01-31 06:46:00,38.5,26.2,29.77,WNW,288,11.5,11.5,61,0.00,CLR,,0.05,WeatherDisplay:10.37,2013-01-31 11:46:00,
2013-01-31 06:51:00,39.7,28.1,29.73,NW,306,13.8,13.8,63,0.00,CLR,,0.05,WeatherDisplay:10.37,2013-01-31 11:51:00,
2013-01-31 06:56:00,38.2,26.3,29.77,NW,310,18.4,18.4,62,0.00,CLR,,0.05,WeatherDisplay:10.37,2013-01-31 11:56:00,
2013-01-31 07:01:00,38.0,26.1,29.77,WNW,294,24.2,24.2,62,0.00,CLR,,0.05,WeatherDisplay:10.37,2013-01-31 12:01:00,
2013-01-31 07:07:00,37.9,25.6,29.78,West,270,20.7,20.7,61,0.00,CLR,,0.05,WeatherDisplay:10.37,2013-01-31 12:07:00,
2013-01-31 07:12:00,38.2,26.3,29.77,NW,310,18.4,18.4,62,0.00,CLR,,0.05,WeatherDisplay:10.37,2013-01-31 12:12:00,
2013-01-31 07:17:00,37.7,25.5,29.79,WNW,283,21.9,21.9,61,0.00,CLR,,0.05,WeatherDisplay:10.37,2013-01-31 12:17:00,
2013-01-31 07:22:00,37.6,25.4,29.80,WNW,283,17.3,17.3,61,0.00,CLR,,0.05,WeatherDisplay:10.37,2013-01-31 12:22:00,
2013-01-31 07:27:00,37.5,25.3,29.80,WNW,287,10.4,14.5,61,0.00,CLR,,0.05,WeatherDisplay:10.37,2013-01-31 12:27:00,
2013-01-31 07:32:00,37.4,25.2,29.81,West,276,23.0,23.0,61,0.00,CLR,,0.05,WeatherDisplay:10.37,2013-01-31 12:32:00,
2013-01-31 07:37:00,37.3,24.7,29.82,WSW,254,22.0,22.0,60,0.00,CLR,,0.05,WeatherDisplay:10.37,2013-01-31 12:37:00,
2013-01-31 07:42:00,37.2,25.0,29.82,WNW,294,12.7,12.7,61,0.00,CLR,,0.05,WeatherDisplay:10.37,2013-01-31 12:42:00,
2013-01-31 07:47:00,37.1,24.5,29.82,West,279,13.8,13.8,60,0.00,CLR,,0.05,WeatherDisplay:10.37,2013-01-31 12:47:00,
2013-01-31 07:52:00,37.1,24.9,29.83,NW,304,11.5,11.5,61,0.00,CLR,,0.05,WeatherDisplay:10.37,2013-01-31 12:52:00,
2013-01-31 07:57:00,37.3,25.1,29.82,West,271,12.7,12.7,61,0.00,CLR,,0.05,WeatherDisplay:10.37,2013-01-31 12:57:00,
2013-01-31 08:02:00,37.3,25.1,29.82,West,271,12.7,12.7,61,0.00,CLR,,0.05,WeatherDisplay:10.37,2013-01-31 13:02:00,
2013-01-31 08:07:00,37.3,25.1,29.82,West,271,12.7,12.7,61,0.00,CLR,,0.05,WeatherDisplay:10.37,2013-01-31 13:07:00,
2013-01-31 08:12:00,37.3,25.1,29.82,West,271,12.7,12.7,61,0.00,CLR,,0.05,WeatherDisplay:10.37,2013-01-31 13:12:00,
2013-01-31 08:17:00,37.4,24.0,29.85,WNW,284,21.9,21.9,58,0.00,CLR,,0.05,WeatherDisplay:10.37,2013-01-31 13:17:00,
2013-01-31 08:22:00,37.3,25.1,29.82,West,271,12.7,12.7,61,0.00,CLR,,0.05,WeatherDisplay:10.37,2013-01-31 13:22:00,
2013-01-31 08:27:00,37.6,25.0,29.85,West,265,19.0,19.0,60,0.00,CLR,,0.05,WeatherDisplay:10.37,2013-01-31 13:27:00,
2013-01-31 08:32:00,37.7,23.8,29.86,WNW,298,18.4,18.4,57,0.00,CLR,,0.05,WeatherDisplay:10.37,2013-01-31 13:32:00,
2013-01-31 08:37:00,37.8,24.3,29.86,West,281,10.4,10.4,58,0.00,CLR,,0.05,WeatherDisplay:10.37,2013-01-31 13:37:00,
2013-01-31 08:42:00,38.0,24.1,29.86,West,281,16.1,16.1,57,0.00,CLR,,0.05,WeatherDisplay:10.37,2013-01-31 13:42:00,
2013-01-31 08:47:00,38.1,23.8,29.86,WNW,301,11.5,14.3,56,0.00,CLR,,0.05,WeatherDisplay:10.37,2013-01-31 13:47:00,
2013-01-31 08:52:00,38.4,24.1,29.87,West,277,15.0,15.0,56,0.00,CLR,,0.05,WeatherDisplay:10.37,2013-01-31 13:52:00,
2013-01-31 08:57:00,38.5,25.0,29.87,WNW,286,8.1,8.1,58,0.00,CLR,,0.05,WeatherDisplay:10.37,2013-01-31 13:57:00,
2013-01-31 09:02:00,38.4,24.1,29.87,West,279,10.4,10.4,56,0.00,CLR,,0.05,WeatherDisplay:10.37,2013-01-31 14:02:00,
2013-01-31 09:07:00,38.8,24.0,29.88,West,275,16.1,16.1,55,0.00,CLR,,0.05,WeatherDisplay:10.37,2013-01-31 14:07:00,
2013-01-31 09:12:00,38.9,24.9,29.88,WNW,291,10.4,10.4,57,0.00,CLR,,0.05,WeatherDisplay:10.37,2013-01-31 14:12:00,
2013-01-31 09:18:00,38.4,24.1,29.87,West,279,10.4,10.4,56,0.00,CLR,,0.05,WeatherDisplay:10.37,2013-01-31 14:18:00,
2013-01-31 09:23:00,39.4,26.2,29.89,West,269,11.5,11.5,59,0.00,CLR,,0.05,WeatherDisplay:10.37,2013-01-31 14:23:00,
2013-01-31 09:28:00,38.4,24.1,29.87,West,279,10.4,10.4,56,0.00,CLR,,0.05,WeatherDisplay:10.37,2013-01-31 14:28:00,
2013-01-31 09:33:00,38.4,24.1,29.87,West,279,10.4,10.4,56,0.00,CLR,,0.05,WeatherDisplay:10.37,2013-01-31 14:33:00,
2013-01-31 09:38:00,38.4,24.1,29.87,West,279,10.4,10.4,56,0.00,CLR,,0.05,WeatherDisplay:10.37,2013-01-31 14:38:00,
2013-01-31 09:43:00,38.4,24.1,29.87,West,279,10.4,10.4,56,0.00,CLR,,0.05,WeatherDisplay:10.37,2013-01-31 14:43:00,
2013-01-31 09:48:00,40.0,25.1,29.89,WNW,285,18.4,18.4,55,0.00,CLR,,0.05,WeatherDisplay:10.37,2013-01-31 14:48:00,
2013-01-31 09:53:00,40.0,25.1,29.89,West,273,16.1,16.1,55,0.00,CLR,,0.05,WeatherDisplay:10.37,2013-01-31 14:53:00,
2013-01-31 09:58:00,40.3,25.4,29.90,WNW,298,20.7,20.7,55,0.00,CLR,,0.05,WeatherDisplay:10.37,2013-01-31 14:58:00,
2013-01-31 10:03:00,40.2,26.2,29.90,West,266,8.1,12.0,57,0.00,CLR,,0.05,WeatherDisplay:10.37,2013-01-31 15:03:00,
2013-01-31 10:08:00,40.4,25.9,29.90,NW,313,15.0,15.0,56,0.00,CLR,,0.05,WeatherDisplay:10.37,2013-01-31 15:08:00,
2013-01-31 10:13:00,40.2,26.2,29.90,West,266,8.1,12.0,57,0.00,CLR,,0.05,WeatherDisplay:10.37,2013-01-31 15:13:00,
2013-01-31 10:18:00,40.2,26.2,29.90,West,266,8.1,12.0,57,0.00,CLR,,0.05,WeatherDisplay:10.37,2013-01-31 15:18:00,
2013-01-31 10:23:00,40.2,26.2,29.90,West,266,8.1,12.0,57,0.00,CLR,,0.05,WeatherDisplay:10.37,2013-01-31 15:23:00,
2013-01-31 10:28:00,40.2,26.2,29.90,West,266,8.1,12.0,57,0.00,CLR,,0.05,WeatherDisplay:10.37,2013-01-31 15:28:00,
2013-01-31 10:33:00,40.9,25.1,29.91,WNW,290,11.5,15.5,53,0.00,CLR,,0.05,WeatherDisplay:10.37,2013-01-31 15:33:00,
2013-01-31 10:38:00,40.9,25.1,29.91,WNW,290,11.5,15.5,53,0.00,CLR,,0.05,WeatherDisplay:10.37,2013-01-31 15:38:00,
2013-01-31 10:43:00,40.9,25.1,29.91,WNW,290,11.5,15.5,53,0.00,CLR,,0.05,WeatherDisplay:10.37,2013-01-31 15:43:00,
2013-01-31 10:48:00,41.3,26.8,29.91,West,277,12.7,12.7,56,0.00,CLR,,0.05,WeatherDisplay:10.37,2013-01-31 15:48:00,
2013-01-31 10:53:00,41.4,26.9,29.91,WNW,283,11.5,11.5,56,0.00,CLR,,0.05,WeatherDisplay:10.37,2013-01-31 15:53:00,
2013-01-31 10:58:00,41.8,27.2,29.91,West,277,17.3,17.3,56,0.00,CLR,,0.05,WeatherDisplay:10.37,2013-01-31 15:58:00,
2013-01-31 11:03:00,41.2,27.5,29.91,WSW,255,12.7,12.7,58,0.00,CLR,,0.05,WeatherDisplay:10.37,2013-01-31 16:03:00,
2013-01-31 11:09:00,41.8,27.2,29.92,West,269,16.1,16.1,56,0.00,CLR,,0.05,WeatherDisplay:10.37,2013-01-31 16:09:00,
2013-01-31 11:14:00,42.0,27.0,29.91,WNW,292,8.0,8.0,55,0.00,CLR,,0.05,WeatherDisplay:10.37,2013-01-31 16:14:00,
2013-01-31 11:19:00,42.3,27.3,29.91,West,280,19.6,19.6,55,0.00,CLR,,0.05,WeatherDisplay:10.37,2013-01-31 16:19:00,
2013-01-31 11:24:00,42.5,28.3,29.91,West,279,13.0,13.0,57,0.00,CLR,,0.05,WeatherDisplay:10.37,2013-01-31 16:24:00,
2013-01-31 11:29:00,42.5,28.3,29.91,WNW,298,12.7,12.7,57,0.00,CLR,,0.05,WeatherDisplay:10.37,2013-01-31 16:29:00,
2013-01-31 11:34:00,42.6,28.0,29.91,NW,313,11.5,11.5,56,0.00,CLR,,0.05,WeatherDisplay:10.37,2013-01-31 16:34:00,
2013-01-31 11:39:00,42.3,25.9,29.91,WNW,293,12.7,12.7,52,0.00,CLR,,0.05,WeatherDisplay:10.37,2013-01-31 16:39:00,
2013-01-31 11:44:00,42.3,26.8,29.91,West,273,19.6,19.6,54,0.00,CLR,,0.05,WeatherDisplay:10.37,2013-01-31 16:44:00,
2013-01-31 11:49:00,42.3,26.4,29.91,West,269,11.5,11.5,53,0.00,CLR,,0.05,WeatherDisplay:10.37,2013-01-31 16:49:00,
2013-01-31 11:54:00,43.1,27.1,29.92,West,276,18.4,18.4,53,0.00,CLR,,0.05,WeatherDisplay:10.37,2013-01-31 16:54:00,
2013-01-31 11:59:00,43.1,25.2,29.92,West,275,25.3,25.3,49,0.00,CLR,,0.05,WeatherDisplay:10.37,2013-01-31 16:59:00,
2013-01-31 12:04:00,42.8,24.9,29.92,WNW,296,18.4,18.4,49,0.00,CLR,,0.05,WeatherDisplay:10.37,2013-01-31 17:04:00,
2013-01-31 12:09:00,42.8,24.9,29.92,WNW,296,11.5,14.1,49,0.00,CLR,,0.05,WeatherDisplay:10.37,2013-01-31 17:09:00,
2013-01-31 12:14:00,42.9,26.5,29.92,West,271,24.2,24.2,52,0.00,CLR,,0.05,WeatherDisplay:10.37,2013-01-31 17:14:00,
2013-01-31 12:19:00,43.0,24.6,29.91,WNW,285,24.2,24.2,48,0.00,CLR,,0.05,WeatherDisplay:10.37,2013-01-31 17:19:00,
2013-01-31 12:24:00,42.9,25.5,29.91,West,269,19.6,19.6,50,0.00,CLR,,0.05,WeatherDisplay:10.37,2013-01-31 17:24:00,
2013-01-31 12:29:00,43.0,27.5,29.91,WSW,258,17.3,17.3,54,0.00,CLR,,0.05,WeatherDisplay:10.37,2013-01-31 17:29:00,
2013-01-31 12:34:00,43.0,27.5,29.91,WSW,258,17.3,17.3,54,0.00,CLR,,0.05,WeatherDisplay:10.37,2013-01-31 17:34:00,
2013-01-31 12:39:00,43.0,27.5,29.91,WSW,258,17.3,17.3,54,0.00,CLR,,0.05,WeatherDisplay:10.37,2013-01-31 17:39:00,
2013-01-31 12:44:00,43.5,25.1,29.91,WNW,287,19.6,19.6,48,0.00,CLR,,0.05,WeatherDisplay:10.37,2013-01-31 17:44:00,
2013-01-31 12:49:00,43.7,24.8,29.91,WSW,250,20.7,20.7,47,0.00,CLR,,0.05,WeatherDisplay:10.37,2013-01-31 17:49:00,
2013-01-31 12:54:00,43.6,25.2,29.91,WNW,285,15.0,15.7,48,0.00,CLR,,0.05,WeatherDisplay:10.37,2013-01-31 17:54:00,
2013-01-31 12:59:00,43.6,25.2,29.91,WNW,285,15.0,15.7,48,0.00,CLR,,0.05,WeatherDisplay:10.37,2013-01-31 17:59:00,
2013-01-31 13:04:00,44.1,25.6,29.90,WSW,257,19.6,19.6,48,0.00,CLR,,0.05,WeatherDisplay:10.37,2013-01-31 18:04:00,
2013-01-31 13:09:00,44.2,25.7,29.91,WNW,295,17.3,17.3,48,0.00,CLR,,0.05,WeatherDisplay:10.37,2013-01-31 18:09:00,
2013-01-31 13:14:00,44.0,24.5,29.91,WNW,294,15.0,15.0,46,0.00,CLR,,0.05,WeatherDisplay:10.37,2013-01-31 18:14:00,
2013-01-31 13:19:00,44.1,25.6,29.90,WSW,257,13.8,17.0,48,0.00,CLR,,0.05,WeatherDisplay:10.37,2013-01-31 18:19:00,
2013-01-31 13:24:00,44.5,26.5,29.91,NW,305,16.0,16.0,49,0.00,CLR,,0.05,WeatherDisplay:10.37,2013-01-31 18:24:00,
2013-01-31 13:29:00,44.7,28.6,29.91,WNW,294,13.8,13.8,53,0.00,CLR,,0.05,WeatherDisplay:10.37,2013-01-31 18:29:00,
2013-01-31 13:34:00,44.1,25.6,29.90,WSW,257,13.8,17.0,48,0.00,CLR,,0.05,WeatherDisplay:10.37,2013-01-31 18:34:00,
2013-01-31 13:39:00,44.1,25.6,29.90,WSW,257,13.8,17.0,48,0.00,CLR,,0.05,WeatherDisplay:10.37,2013-01-31 18:39:00,
2013-01-31 13:44:00,44.1,25.6,29.90,WSW,257,13.8,17.0,48,0.00,CLR,,0.05,WeatherDisplay:10.37,2013-01-31 18:44:00,
2013-01-31 13:49:00,45.4,27.3,29.91,West,259,8.1,8.1,49,0.00,CLR,,0.05,WeatherDisplay:10.37,2013-01-31 18:49:00,
2013-01-31 13:54:00,45.6,27.5,29.91,NW,319,16.1,16.1,49,0.00,CLR,,0.05,WeatherDisplay:10.37,2013-01-31 18:54:00,
2013-01-31 13:59:00,45.3,27.2,29.91,WSW,250,8.1,8.1,49,0.00,CLR,,0.05,WeatherDisplay:10.37,2013-01-31 18:59:00,
2013-01-31 14:04:00,45.3,27.2,29.91,WSW,250,8.1,8.1,49,0.00,CLR,,0.05,WeatherDisplay:10.37,2013-01-31 19:04:00,
2013-01-31 14:09:00,45.3,27.2,29.91,WSW,250,8.1,8.1,49,0.00,CLR,,0.05,WeatherDisplay:10.37,2013-01-31 19:09:00,
2013-01-31 14:14:00,45.3,27.2,29.91,WSW,250,8.1,8.1,49,0.00,CLR,,0.05,WeatherDisplay:10.37,2013-01-31 19:14:00,
2013-01-31 14:19:00,45.8,26.7,29.91,WNW,288,11.0,11.0,47,0.00,CLR,,0.05,WeatherDisplay:10.37,2013-01-31 19:19:00,
2013-01-31 14:24:00,46.0,26.9,29.92,WNW,290,15.0,15.0,47,0.00,CLR,,0.05,WeatherDisplay:10.37,2013-01-31 19:24:00,
2013-01-31 14:29:00,45.3,27.2,29.91,WSW,250,8.1,8.1,49,0.00,CLR,,0.05,WeatherDisplay:10.37,2013-01-31 19:29:00,
2013-01-31 14:34:00,46.0,26.9,29.92,WNW,285,17.3,17.3,47,0.00,CLR,,0.05,WeatherDisplay:10.37,2013-01-31 19:34:00,
2013-01-31 14:39:00,46.0,24.7,29.92,NW,317,21.9,21.9,43,0.00,CLR,,0.05,WeatherDisplay:10.37,2013-01-31 19:39:00,
2013-01-31 14:44:00,45.9,25.2,29.93,WNW,302,13.0,13.0,44,0.00,CLR,,0.05,WeatherDisplay:10.37,2013-01-31 19:44:00,
2013-01-31 14:49:00,45.9,25.2,29.93,West,281,18.0,18.0,44,0.00,CLR,,0.05,WeatherDisplay:10.37,2013-01-31 19:49:00,
2013-01-31 14:54:00,46.0,26.9,29.92,WNW,284,11.5,11.5,47,0.00,CLR,,0.05,WeatherDisplay:10.37,2013-01-31 19:54:00,
2013-01-31 14:59:00,46.0,26.9,29.92,WNW,284,11.5,11.5,47,0.00,CLR,,0.05,WeatherDisplay:10.37,2013-01-31 19:59:00,
2013-01-31 15:04:00,46.0,24.7,29.94,WNW,291,19.6,19.6,43,0.00,CLR,,0.05,WeatherDisplay:10.37,2013-01-31 20:04:00,
2013-01-31 15:09:00,46.0,26.9,29.92,WNW,284,11.5,11.5,47,0.00,CLR,,0.05,WeatherDisplay:10.37,2013-01-31 20:09:00,
2013-01-31 15:14:00,45.8,25.1,29.94,WNW,292,20.7,20.7,44,0.00,CLR,,0.05,WeatherDisplay:10.37,2013-01-31 20:14:00,
2013-01-31 15:19:00,45.8,24.5,29.94,NW,304,19.0,19.0,43,0.00,CLR,,0.05,WeatherDisplay:10.37,2013-01-31 20:19:00,
2013-01-31 15:24:00,45.8,24.5,29.95,NNW,329,4.6,9.2,43,0.00,CLR,,0.05,WeatherDisplay:10.37,2013-01-31 20:24:00,
2013-01-31 15:29:00,45.8,24.5,29.95,NNW,329,4.6,9.2,43,0.00,CLR,,0.05,WeatherDisplay:10.37,2013-01-31 20:29:00,
2013-01-31 15:34:00,45.6,24.9,29.95,WNW,286,19.6,19.6,44,0.00,CLR,,0.05,WeatherDisplay:10.37,2013-01-31 20:34:00,
2013-01-31 15:39:00,45.5,23.7,29.95,WNW,288,21.9,21.9,42,0.00,CLR,,0.05,WeatherDisplay:10.37,2013-01-31 20:39:00,
2013-01-31 15:44:00,45.8,24.5,29.95,NNW,329,4.6,9.2,43,0.00,CLR,,0.05,WeatherDisplay:10.37,2013-01-31 20:44:00,
2013-01-31 15:49:00,45.4,25.3,29.96,NW,312,16.1,16.1,45,0.00,CLR,,0.05,WeatherDisplay:10.37,2013-01-31 20:49:00,
2013-01-31 15:54:00,45.3,24.6,29.96,WNW,292,16.1,16.1,44,0.00,CLR,,0.05,WeatherDisplay:10.37,2013-01-31 20:54:00,
2013-01-31 15:59:00,45.2,24.6,29.96,NW,309,11.5,11.5,44,0.00,CLR,,0.05,WeatherDisplay:10.37,2013-01-31 20:59:00,
2013-01-31 16:04:00,45.3,24.6,29.96,NW,323,4.6,8.6,44,0.00,CLR,,0.05,WeatherDisplay:10.37,2013-01-31 21:04:00,
2013-01-31 16:09:00,45.1,23.3,29.97,WNW,287,19.6,19.6,42,0.00,CLR,,0.05,WeatherDisplay:10.37,2013-01-31 21:09:00,
2013-01-31 16:14:00,44.9,23.2,29.98,WNW,288,19.6,19.6,42,0.00,CLR,,0.05,WeatherDisplay:10.37,2013-01-31 21:14:00,
2013-01-31 16:19:00,44.9,23.7,29.98,West,279,16.0,16.0,43,0.00,CLR,,0.05,WeatherDisplay:10.37,2013-01-31 21:19:00,
2013-01-31 16:24:00,44.9,23.7,29.98,WNW,292,17.3,17.3,43,0.00,CLR,,0.05,WeatherDisplay:10.37,2013-01-31 21:24:00,
2013-01-31 16:29:00,44.7,23.5,29.98,West,281,11.5,11.5,43,0.00,CLR,,0.05,WeatherDisplay:10.37,2013-01-31 21:29:00,
2013-01-31 16:34:00,44.6,23.5,29.98,WNW,294,11.5,11.5,43,0.00,CLR,,0.05,WeatherDisplay:10.37,2013-01-31 21:34:00,
2013-01-31 16:39:00,44.5,23.4,29.98,WNW,290,16.1,16.1,43,0.00,CLR,,0.05,WeatherDisplay:10.37,2013-01-31 21:39:00,
2013-01-31 16:44:00,44.9,24.3,29.98,WNW,298,6.9,11.6,44,0.00,CLR,,0.05,WeatherDisplay:10.37,2013-01-31 21:44:00,
2013-01-31 16:49:00,44.1,22.4,29.97,WNW,284,26.5,26.5,42,0.00,CLR,,0.05,WeatherDisplay:10.37,2013-01-31 21:49:00,
2013-01-31 16:54:00,44.9,24.3,29.98,WNW,298,6.9,11.6,44,0.00,CLR,,0.05,WeatherDisplay:10.37,2013-01-31 21:54:00,
2013-01-31 16:59:00,44.9,24.3,29.98,WNW,298,6.9,11.6,44,0.00,CLR,,0.05,WeatherDisplay:10.37,2013-01-31 21:59:00,
2013-01-31 17:04:00,44.9,24.3,29.98,WNW,298,6.9,11.6,44,0.00,CLR,,0.05,WeatherDisplay:10.37,2013-01-31 22:04:00,
2013-01-31 17:09:00,44.9,24.3,29.98,WNW,298,6.9,11.6,44,0.00,CLR,,0.05,WeatherDisplay:10.37,2013-01-31 22:09:00,
2013-01-31 17:14:00,43.3,22.8,29.99,NW,315,17.3,17.3,44,0.00,CLR,,0.05,WeatherDisplay:10.37,2013-01-31 22:14:00,
2013-01-31 17:19:00,43.1,23.2,29.99,West,261,10.4,10.4,45,0.00,CLR,,0.05,WeatherDisplay:10.37,2013-01-31 22:19:00,
2013-01-31 17:24:00,44.9,24.3,29.98,WNW,298,6.9,11.6,44,0.00,CLR,,0.05,WeatherDisplay:10.37,2013-01-31 22:24:00,
2013-01-31 17:29:00,42.9,22.5,29.98,WNW,295,11.5,11.5,44,0.00,CLR,,0.05,WeatherDisplay:10.37,2013-01-31 22:29:00,
2013-01-31 17:34:00,42.9,22.5,29.98,NW,305,5.8,5.8,44,0.00,CLR,,0.05,WeatherDisplay:10.37,2013-01-31 22:34:00,
2013-01-31 17:39:00,42.9,22.5,29.98,NW,305,5.8,5.8,44,0.00,CLR,,0.05,WeatherDisplay:10.37,2013-01-31 22:39:00,
2013-01-31 17:44:00,42.9,22.5,29.98,NW,305,5.8,5.8,44,0.00,CLR,,0.05,WeatherDisplay:10.37,2013-01-31 22:44:00,
2013-01-31 17:49:00,42.2,22.4,29.99,West,276,9.2,9.2,45,0.00,CLR,,0.05,WeatherDisplay:10.37,2013-01-31 22:49:00,
2013-01-31 17:54:00,42.9,22.5,29.98,NW,305,5.8,5.8,44,0.00,CLR,,0.05,WeatherDisplay:10.37,2013-01-31 22:54:00,
2013-01-31 17:59:00,42.9,22.5,29.98,NW,305,5.8,5.8,44,0.00,CLR,,0.05,WeatherDisplay:10.37,2013-01-31 22:59:00,
2013-01-31 18:04:00,42.9,22.5,29.98,NW,305,5.8,5.8,44,0.00,CLR,,0.05,WeatherDisplay:10.37,2013-01-31 23:04:00,
2013-01-31 18:09:00,42.9,22.5,29.98,NW,305,5.8,5.8,44,0.00,CLR,,0.05,WeatherDisplay:10.37,2013-01-31 23:09:00,
2013-01-31 18:14:00,42.9,22.5,29.98,NW,305,5.8,5.8,44,0.00,CLR,,0.05,WeatherDisplay:10.37,2013-01-31 23:14:00,
2013-01-31 18:19:00,42.9,22.5,29.98,NW,305,5.8,5.8,44,0.00,CLR,,0.05,WeatherDisplay:10.37,2013-01-31 23:19:00,
2013-01-31 18:24:00,42.9,22.5,29.98,NW,305,5.8,5.8,44,0.00,CLR,,0.05,WeatherDisplay:10.37,2013-01-31 23:24:00,
2013-01-31 18:29:00,42.9,22.5,29.98,NW,305,5.8,5.8,44,0.00,CLR,,0.05,WeatherDisplay:10.37,2013-01-31 23:29:00,
2013-01-31 18:34:00,42.9,22.5,29.98,NW,305,5.8,5.8,44,0.00,CLR,,0.05,WeatherDisplay:10.37,2013-01-31 23:34:00,
2013-01-31 18:39:00,40.2,22.1,29.99,West,266,6.9,6.9,48,0.00,CLR,,0.05,WeatherDisplay:10.37,2013-01-31 23:39:00,
2013-01-31 18:44:00,42.9,22.5,29.98,NW,305,5.8,5.8,44,0.00,CLR,,0.05,WeatherDisplay:10.37,2013-01-31 23:44:00,
2013-01-31 18:49:00,42.9,22.5,29.98,NW,305,5.8,5.8,44,0.00,CLR,,0.05,WeatherDisplay:10.37,2013-01-31 23:49:00,
2013-01-31 18:54:00,40.3,23.1,30.00,West,269,9.2,9.2,50,0.00,CLR,,0.05,WeatherDisplay:10.37,2013-01-31 23:54:00,
2013-01-31 18:59:00,40.2,23.0,30.00,West,269,9.2,9.2,50,0.00,CLR,,0.05,WeatherDisplay:10.37,2013-01-31 23:59:00,
2013-01-31 19:04:00,40.1,22.9,30.00,WNW,284,10.0,10.0,50,0.00,CLR,,0.05,WeatherDisplay:10.37,2013-02-01 00:04:00,
2013-01-31 19:09:00,40.0,23.3,30.00,WSW,250,5.0,5.0,51,0.00,CLR,,0.05,WeatherDisplay:10.37,2013-02-01 00:09:00,
2013-01-31 19:14:00,40.2,23.0,30.00,West,268,4.6,4.7,50,0.00,CLR,,0.05,WeatherDisplay:10.37,2013-02-01 00:14:00,
2013-01-31 19:19:00,39.7,22.6,30.01,WSW,240,5.8,5.8,50,0.00,CLR,,0.05,WeatherDisplay:10.37,2013-02-01 00:19:00,
2013-01-31 19:24:00,39.6,22.9,30.01,West,266,9.2,9.2,51,0.00,CLR,,0.05,WeatherDisplay:10.37,2013-02-01 00:24:00,
2013-01-31 19:29:00,39.6,23.4,30.01,WSW,246,4.6,4.6,52,0.00,CLR,,0.05,WeatherDisplay:10.37,2013-02-01 00:29:00,
2013-01-31 19:34:00,39.6,22.9,30.01,West,267,5.8,5.8,51,0.00,CLR,,0.05,WeatherDisplay:10.37,2013-02-01 00:34:00,
2013-01-31 19:39:00,39.3,23.6,30.01,WSW,257,3.5,3.5,53,0.00,CLR,,0.05,WeatherDisplay:10.37,2013-02-01 00:39:00,
2013-01-31 19:44:00,39.6,22.9,30.01,West,267,5.8,5.8,51,0.00,CLR,,0.05,WeatherDisplay:10.37,2013-02-01 00:44:00,
2013-01-31 19:49:00,39.6,22.9,30.01,West,267,5.8,5.8,51,0.00,CLR,,0.05,WeatherDisplay:10.37,2013-02-01 00:49:00,
2013-01-31 19:54:00,38.8,22.7,30.02,WSW,239,5.0,5.0,52,0.00,CLR,,0.05,WeatherDisplay:10.37,2013-02-01 00:54:00,
2013-01-31 19:59:00,39.6,22.9,30.01,West,267,5.8,5.8,51,0.00,CLR,,0.05,WeatherDisplay:10.37,2013-02-01 00:59:00,
2013-01-31 20:04:00,39.6,22.9,30.01,West,267,5.8,5.8,51,0.00,CLR,,0.05,WeatherDisplay:10.37,2013-02-01 01:04:00,
2013-01-31 20:09:00,39.6,22.9,30.01,West,267,5.8,5.8,51,0.00,CLR,,0.05,WeatherDisplay:10.37,2013-02-01 01:09:00,
2013-01-31 20:14:00,39.6,22.9,30.01,West,267,5.8,5.8,51,0.00,CLR,,0.05,WeatherDisplay:10.37,2013-02-01 01:14:00,
2013-01-31 20:19:00,37.9,22.3,30.01,WSW,258,0.0,0.0,53,0.00,CLR,,0.05,WeatherDisplay:10.37,2013-02-01 01:19:00,
2013-01-31 20:24:00,39.6,22.9,30.01,West,267,5.8,5.8,51,0.00,CLR,,0.05,WeatherDisplay:10.37,2013-02-01 01:24:00,
2013-01-31 20:29:00,37.4,22.7,30.00,WSW,258,2.3,2.3,55,0.00,CLR,,0.05,WeatherDisplay:10.37,2013-02-01 01:29:00,
2013-01-31 20:34:00,39.6,22.9,30.01,West,267,5.8,5.8,51,0.00,CLR,,0.05,WeatherDisplay:10.37,2013-02-01 01:34:00,
2013-01-31 20:39:00,37.2,22.9,30.00,WSW,258,2.3,2.3,56,0.00,CLR,,0.05,WeatherDisplay:10.37,2013-02-01 01:39:00,
2013-01-31 20:44:00,37.0,22.7,30.00,WSW,257,3.5,3.5,56,0.00,CLR,,0.05,WeatherDisplay:10.37,2013-02-01 01:44:00,
2013-01-31 20:49:00,36.9,23.1,30.00,WSW,257,1.2,0.0,57,0.00,CLR,,0.05,WeatherDisplay:10.37,2013-02-01 01:49:00,
2013-01-31 20:54:00,36.7,22.9,30.00,WSW,258,0.0,0.0,57,0.00,CLR,,0.05,WeatherDisplay:10.37,2013-02-01 01:54:00,
2013-01-31 20:59:00,36.5,23.1,30.00,WSW,258,2.3,2.3,58,0.00,CLR,,0.05,WeatherDisplay:10.37,2013-02-01 01:59:00,
2013-01-31 21:04:00,36.3,22.5,30.00,WSW,258,0.0,0.0,57,0.00,CLR,,0.05,WeatherDisplay:10.37,2013-02-01 02:04:00,
2013-01-31 21:09:00,36.5,23.1,30.00,WSW,257,0.0,0.0,58,0.00,CLR,,0.05,WeatherDisplay:10.37,2013-02-01 02:09:00,
2013-01-31 21:14:00,36.1,22.7,30.01,WSW,257,0.0,0.0,58,0.00,CLR,,0.05,WeatherDisplay:10.37,2013-02-01 02:14:00,
2013-01-31 21:19:00,36.5,23.1,30.00,WSW,257,0.0,0.0,58,0.00,CLR,,0.05,WeatherDisplay:10.37,2013-02-01 02:19:00,
2013-01-31 21:24:00,36.5,23.1,30.00,WSW,257,0.0,0.0,58,0.00,CLR,,0.05,WeatherDisplay:10.37,2013-02-01 02:24:00,
2013-01-31 21:29:00,36.5,23.1,30.00,WSW,257,0.0,0.0,58,0.00,CLR,,0.05,WeatherDisplay:10.37,2013-02-01 02:29:00,
2013-01-31 21:34:00,35.7,22.4,30.02,WSW,258,0.0,0.0,58,0.00,CLR,,0.05,WeatherDisplay:10.37,2013-02-01 02:34:00,
2013-01-31 21:39:00,36.5,23.1,30.00,WSW,257,0.0,0.0,58,0.00,CLR,,0.05,WeatherDisplay:10.37,2013-02-01 02:39:00,
2013-01-31 21:44:00,35.6,23.5,30.01,SW,221,2.3,2.3,61,0.00,CLR,,0.05,WeatherDisplay:10.37,2013-02-01 02:44:00,
2013-01-31 21:49:00,35.6,23.5,30.01,SW,221,2.3,2.3,61,0.00,CLR,,0.05,WeatherDisplay:10.37,2013-02-01 02:49:00,
2013-01-31 21:54:00,35.6,23.5,30.01,SW,221,2.3,2.3,61,0.00,CLR,,0.05,WeatherDisplay:10.37,2013-02-01 02:54:00,
2013-01-31 21:59:00,35.6,23.5,30.01,SW,221,2.3,2.3,61,0.00,CLR,,0.05,WeatherDisplay:10.37,2013-02-01 02:59:00,
2013-01-31 22:04:00,35.8,22.9,30.02,SW,232,3.5,3.5,59,0.00,CLR,,0.05,WeatherDisplay:10.37,2013-02-01 03:04:00,
2013-01-31 22:09:00,35.8,23.3,30.02,SW,232,2.3,2.3,60,0.00,CLR,,0.05,WeatherDisplay:10.37,2013-02-01 03:09:00,
2013-01-31 22:14:00,35.9,23.0,30.01,SW,232,3.5,3.5,59,0.00,CLR,,0.05,WeatherDisplay:10.37,2013-02-01 03:14:00,
2013-01-31 22:19:00,35.9,23.0,30.02,SW,232,2.3,2.3,59,0.00,CLR,,0.05,WeatherDisplay:10.37,2013-02-01 03:19:00,
2013-01-31 22:24:00,35.9,23.0,30.01,SW,232,1.2,2.3,59,0.00,CLR,,0.05,WeatherDisplay:10.37,2013-02-01 03:24:00,
2013-01-31 22:29:00,35.9,23.0,30.02,SW,231,3.5,3.5,59,0.00,CLR,,0.05,WeatherDisplay:10.37,2013-02-01 03:29:00,
2013-01-31 22:34:00,36.0,23.0,30.01,SW,231,3.5,3.5,59,0.00,CLR,,0.05,WeatherDisplay:10.37,2013-02-01 03:34:00,
2013-01-31 22:39:00,36.0,23.0,30.01,SW,231,2.3,2.3,59,0.00,CLR,,0.05,WeatherDisplay:10.37,2013-02-01 03:39:00,
2013-01-31 22:44:00,36.0,23.0,30.02,SW,230,2.3,2.3,59,0.00,CLR,,0.05,WeatherDisplay:10.37,2013-02-01 03:44:00,
2013-01-31 22:49:00,35.9,23.0,30.02,SW,231,3.0,3.0,59,0.00,CLR,,0.05,WeatherDisplay:10.37,2013-02-01 03:49:00,
2013-01-31 22:54:00,35.8,23.3,30.01,SW,231,3.5,3.5,60,0.00,CLR,,0.05,WeatherDisplay:10.37,2013-02-01 03:54:00,
2013-01-31 22:59:00,35.9,23.0,30.02,SW,231,2.3,2.3,59,0.00,CLR,,0.05,WeatherDisplay:10.37,2013-02-01 03:59:00,
2013-01-31 23:04:00,35.9,23.0,30.02,SW,231,2.3,2.3,59,0.00,CLR,,0.05,WeatherDisplay:10.37,2013-02-01 04:04:00,
2013-01-31 23:09:00,35.7,23.9,30.01,SSW,205,3.5,3.5,62,0.00,CLR,,0.05,WeatherDisplay:10.37,2013-02-01 04:09:00,
2013-01-31 23:14:00,35.7,23.9,30.01,WSW,241,3.5,3.5,62,0.00,CLR,,0.05,WeatherDisplay:10.37,2013-02-01 04:14:00,
2013-01-31 23:19:00,35.7,23.9,30.00,WSW,242,9.2,9.2,62,0.00,CLR,,0.05,WeatherDisplay:10.37,2013-02-01 04:19:00,
2013-01-31 23:24:00,36.1,23.9,30.00,SSW,202,11.5,11.5,61,0.00,CLR,,0.05,WeatherDisplay:10.37,2013-02-01 04:24:00,
2013-01-31 23:29:00,36.5,24.7,30.00,WSW,240,9.0,9.0,62,0.00,CLR,,0.05,WeatherDisplay:10.37,2013-02-01 04:29:00,
2013-01-31 23:34:00,36.8,24.6,30.00,WSW,246,10.4,10.4,61,0.00,CLR,,0.05,WeatherDisplay:10.37,2013-02-01 04:34:00,
2013-01-31 23:39:00,36.6,24.4,30.00,WSW,240,6.9,9.8,61,0.00,CLR,,0.05,WeatherDisplay:10.37,2013-02-01 04:39:00,
2013-01-31 23:44:00,37.4,25.2,30.01,SW,219,11.5,11.5,61,0.00,CLR,,0.05,WeatherDisplay:10.37,2013-02-01 04:44:00,
2013-01-31 23:49:00,36.6,24.4,30.00,WSW,240,6.9,9.8,61,0.00,CLR,,0.05,WeatherDisplay:10.37,2013-02-01 04:49:00,
2013-01-31 23:54:00,37.8,25.1,30.00,WSW,237,10.4,10.4,60,0.00,CLR,,0.05,WeatherDisplay:10.37,2013-02-01 04:54:00,
2013-01-31 23:59:00,37.9,25.6,30.00,SSE,159,10.4,10.4,61,0.00,CLR,,0.05,WeatherDisplay:10.37,2013-02-01 04:59:00,